Hourly Data Report for October 24, 2015

All times are specified in Local Standard Time (LST). Add 1 hour to adjust for Daylight Saving Time where and when it is observed.

OTTAWA INTL A
ONTARIO

45°19'00.000" N
75°40'00.000" W
114.90 m
6106001
71628
YOW

Download Data

Hourly Data (October 2015)
Hourly Data Report for October 24, 2015
Temp Definition
°C
Dew Point Temp Definition
°C
Rel Hum Definition
%
Wind Dir Definition
10's deg

Wind Spd Definition
km/h
Visibility Definition
km
Stn Press Definition
kPa
Hmdx Definition


Wind Chill Definition


Weather Definition


TIME
00:00 Legend Double Dagger -0.3 -3.3 80 14 5 24.1 101.41   -2 LegendNANA
01:00 Legend Double Dagger -0.4 -3.4 80 13 8 24.1 101.38   -3 Mainly Clear
02:00 Legend Double Dagger -1.0 -3.5 83 12 11 24.1 101.29   -5 LegendNANA
03:00 Legend Double Dagger -1.6 -3.6 86 10 11 24.1 101.22   -5 LegendNANA
04:00 Legend Double Dagger -1.0 -2.7 88 7 16 24.1 101.15   -6 Mostly Cloudy
05:00 Legend Double Dagger -0.3 -2.2 87 9 5 24.1 101.18   -2 LegendNANA
06:00 Legend Double Dagger -0.7 -2.1 90 6 9 24.1 101.15   -4 LegendNANA
07:00 Legend Double Dagger 0.1 -2.0 86 9 10 24.1 101.12     Mostly Cloudy
08:00 Legend Double Dagger 0.9 -1.3 85 9 15 24.1 101.04     LegendNANA
09:00 Legend Double Dagger 3.5 -0.2 77 10 16 24.1 101.00     LegendNANA
10:00 Legend Double Dagger 4.8 -0.6 68 9 18 24.1 100.85     Mostly Cloudy
11:00 Legend Double Dagger 5.9 -0.2 65 12 21 24.1 100.78     LegendNANA
12:00 Legend Double Dagger 7.4 -0.5 57 14 18 24.1 100.69     LegendNANA
13:00 Legend Double Dagger 8.2 0.7 59 13 18 24.1 100.61     Cloudy
14:00 Legend Double Dagger 9.6 -0.3 50 14 17 24.1 100.43     LegendNANA
15:00 Legend Double Dagger 9.0 0.7 56 12 14 24.1 100.45     LegendNANA
16:00 Legend Double Dagger 9.7 -0.2 50 15 20 24.1 100.34     Cloudy
17:00 Legend Double Dagger 9.4 0.1 52 16 20 24.1 100.25     LegendNANA
18:00 Legend Double Dagger 8.0 1.6 64 14 19 24.1 100.10     LegendNANA
19:00 Legend Double Dagger 8.2 2.0 65 14 20 24.1 100.01     Cloudy
20:00 Legend Double Dagger 6.8 4.6 86 15 11 16.1 99.94     Rain
21:00 Legend Double Dagger 7.0 5.2 88 15 15 24.1 99.80     Rain
22:00 Legend Double Dagger 7.3 6.1 92 15 12 16.1 99.73     Rain
23:00 Legend Double Dagger 7.7 6.7 93 17 18 8.1 99.62     Rain

Notes on Data Quality.

Legend

  • E = Estimated
  • M = Missing
  • NA = Not Available
  • ‡ = Partner data that is not subject to review by the National Climate Archives
Date modified: